Regional Weather Roundup
Issued by NWS

Home | Current Version | Previous Version | Graphics & Text | Print | Product List | Glossary On
Versions: 1 2 3 4 5 6 7 8 9 10 11 12 13 14 15 16 17 18 19 20 21 22 23 24 25 26 27 28 29 30 31 32 33 34 35 36 37 38 39 40 41 42 43 44 45 46 47 48 49 50
000
ASUS43 KFSD 251210
RWRSD

WEATHER ROUNDUP FOR SOUTH DAKOTA
NATIONAL WEATHER SERVICE SIOUX FALLS SD
700 AM CDT TUE APR 25 2017

NOTE: "FAIR" INDICATES FEW OR NO CLOUDS BELOW 12,000 FEET WITH NO
SIGNIFICANT WEATHER AND/OR OBSTRUCTIONS TO VISIBILITY.


SDZ001>005-009-010-012>017-251300-
NORTHWEST AND NORTH CENTRAL SOUTH DAKOTA

CITY           SKY/WX    TMP DP  RH WIND       PRES   REMARKS
BUFFALO          N/A     30  27  88 NE16      29.64R WCI  19
FAITH            N/A     30  30 100 NE18      29.68S WCI  18
MOBRIDGE       CLOUDY    34  27  75 N15       29.69R WCI  24
$$

SDZ012>016-024>037-041>051-057-063-072>074-251300-
SOUTHWEST AND SOUTH CENTRAL SOUTH DAKOTA

CITY           SKY/WX    TMP DP  RH WIND       PRES   REMARKS
RAPID CTY ARPT LGT SNOW  32  30  92 NE15      29.65R FOG     WCI  22
PIERRE         CLOUDY    34  30  85 N14       29.66F WCI  25
CUSTER         LGT SNOW  29  27  92 NE13G20   29.56R FOG     WCI  19
ELLSWORTH AFB  LGT SNOW  31  31 100 NE12      29.65R FOG     WCI  22
PHILIP         CLOUDY    34  31  88 NE14      29.68R WCI  25
PINE RIDGE     LGT RAIN  36  35  96 E13       29.61R FOG
SPEARFISH      LGT SNOW  30  30 100 E12       29.65R VSB 3/4 WCI  21
WINNER         CLOUDY    37  33  85 N14       29.65S
$$

SDZ004>011-016>023-039-040-251300-
NORTHEAST SOUTH DAKOTA

CITY           SKY/WX    TMP DP  RH WIND       PRES   REMARKS
ABERDEEN       CLOUDY    33  28  81 N21       29.68S WCI  21
WATERTOWN      CLOUDY    33  32  96 N21G31    29.58F FOG     WCI  21
BROOKINGS      CLOUDY    36  35  96 N15G21    29.57S
SISSETON         N/A     33  32  96 N20G28    29.65R WCI  21
$$

SDZ017-020-022-023-036>040-048>070-251300-
SOUTHEAST SOUTH DAKOTA

CITY           SKY/WX    TMP DP  RH WIND       PRES   REMARKS
SIOUX FALLS    CLOUDY    41  39  93 N12       29.55F
HURON          CLOUDY    35  33  92 N21G28    29.63S WCI  24
CHAMBERLAIN    CLOUDY    38  35  88 NW15      29.65R
MITCHELL       CLOUDY    37  35  92 N18G28    29.62S
YANKTON        CLOUDY    39  36  87 N15       29.57R
$$

ABBREVIATIONS USED IN REMARKS
   TC - TEMPERATURE IN CELSIUS
  WCI - WIND CHILL INDEX
   HX - HEAT INDEX
  VSB - VISIBILITY




USA.gov is the U.S. government's official web portal to all federal, state and local government web resources and services.